| time (UTC) | temp F | wind direction | speed MPH | gust MPH | rain 1hr in | rain 24hr in | rain mn in | humidity % | barometer mb |
| 20260509184012 | 89 | 326 | 0.0 | 0.0 | 0.00 | 0.00 | 0.00 | 34 | 1012.0 |
| 20260509182012 | 88 | 326 | 1.0 | 1.0 | 0.00 | 0.00 | 0.00 | 35 | 1012.0 |
| 20260509180013 | 88 | 326 | 3.0 | 5.0 | 0.00 | 0.00 | 0.00 | 36 | 1012.0 |
| 20260509174014 | 88 | 359 | 0.0 | 1.0 | 0.00 | 0.00 | 0.00 | 37 | 1013.0 |
| 20260509172012 | 88 | 359 | 1.0 | 2.0 | 0.00 | 0.00 | 0.00 | 37 | 1014.0 |
| 20260509170013 | 87 | 359 | 4.0 | 6.0 | 0.00 | 0.00 | 0.00 | 38 | 1013.0 |
| 20260509164014 | 85 | 353 | 0.0 | 1.0 | 0.00 | 0.00 | 0.00 | 39 | 1014.0 |
| 20260509162013 | 85 | 353 | 1.0 | 2.0 | 0.00 | 0.00 | 0.00 | 38 | 1015.0 |
| 20260509160013 | 87 | 353 | 5.0 | 6.0 | 0.00 | 0.00 | 0.00 | 37 | 1014.0 |
| 20260509154013 | 85 | 346 | 0.0 | 1.0 | 0.00 | 0.00 | 0.00 | 40 | 1014.0 |
| 20260509152015 | 86 | 346 | 1.0 | 2.0 | 0.00 | 0.00 | 0.00 | 40 | 1015.0 |
| 20260509150013 | 85 | 346 | 4.0 | 6.0 | 0.00 | 0.00 | 0.00 | 41 | 1015.0 |
| 20260509144013 | 85 | 351 | 0.0 | 1.0 | 0.00 | 0.00 | 0.00 | 41 | 1015.0 |
| 20260509142012 | 85 | 351 | 1.0 | 2.0 | 0.00 | 0.00 | 0.00 | 42 | 1016.0 |
| 20260509134014 | 84 | 351 | 4.0 | 6.0 | 0.00 | 0.00 | 0.00 | 44 | 1016.0 |
| 20260509132013 | 87 | 354 | 3.0 | 6.0 | 0.00 | 0.00 | 0.00 | 40 | 1017.0 |
| 20260509130015 | 84 | 354 | 3.0 | 6.0 | 0.00 | 0.00 | 0.00 | 43 | 1017.0 |
| 20260509124013 | 87 | 354 | 3.0 | 6.0 | 0.00 | 0.00 | 0.00 | 40 | 1017.0 |
| 20260509122012 | 85 | 6 | 2.0 | 5.0 | 0.00 | 0.00 | 0.00 | 41 | 1018.0 |
| 20260509120012 | 83 | 6 | 2.0 | 5.0 | 0.00 | 0.00 | 0.00 | 44 | 1016.0 |
| 20260509114013 | 84 | 7 | 2.0 | 4.0 | 0.00 | 0.00 | 0.00 | 43 | 1016.0 |
| 20260509112015 | 83 | 13 | 1.0 | 2.0 | 0.00 | 0.00 | 0.00 | 45 | 1016.0 |
| 20260509110014 | 83 | 13 | 1.0 | 2.0 | 0.00 | 0.00 | 0.00 | 44 | 1016.0 |
| 20260509104014 | 83 | 13 | 1.0 | 2.0 | 0.00 | 0.00 | 0.00 | 43 | 1016.0 |
| 20260509102013 | 82 | 17 | 1.0 | 1.0 | 0.00 | 0.00 | 0.00 | 44 | 1016.0 |
| 20260509100015 | 82 | 17 | 1.0 | 1.0 | 0.00 | 0.00 | 0.00 | 43 | 1015.0 |
| 20260509094013 | 82 | 17 | 1.0 | 1.0 | 0.00 | 0.00 | 0.00 | 44 | 1015.0 |
| 20260509092014 | 81 | 42 | 1.0 | 2.0 | 0.00 | 0.00 | 0.00 | 44 | 1015.0 |
| 20260509090014 | 82 | 42 | 1.0 | 2.0 | 0.00 | 0.00 | 0.00 | 43 | 1014.0 |
| 20260509084014 | 82 | 42 | 1.0 | 2.0 | 0.00 | 0.00 | 0.00 | 44 | 1014.0 |
| 20260509082014 | 82 | 49 | 2.0 | 2.0 | 0.00 | 0.00 | 0.00 | 44 | 1014.0 |
| 20260509074012 | 83 | 49 | 2.0 | 2.0 | 0.00 | 0.00 | 0.00 | 42 | 1013.0 |
| 20260509072013 | 82 | 40 | 1.0 | 1.0 | 0.00 | 0.00 | 0.00 | 44 | 1013.0 |
| 20260509070012 | 82 | 40 | 1.0 | 1.0 | 0.00 | 0.00 | 0.00 | 45 | 1013.0 |
| 20260509064013 | 83 | 40 | 1.0 | 1.0 | 0.00 | 0.00 | 0.00 | 43 | 1013.0 |
| 20260509062012 | 83 | 47 | 1.0 | 1.0 | 0.00 | 0.00 | 0.00 | 43 | 1013.0 |
| 20260509060013 | 83 | 47 | 1.0 | 1.0 | 0.00 | 0.00 | 0.00 | 44 | 1014.0 |
| 20260509054013 | 83 | 55 | 1.0 | 1.0 | 0.00 | 0.00 | 0.00 | 43 | 1014.0 |
| 20260509052014 | 83 | 44 | 1.0 | 1.0 | 0.00 | 0.00 | 0.00 | 44 | 1013.0 |
| 20260509050013 | 84 | 44 | 1.0 | 1.0 | 0.00 | 0.00 | 0.00 | 43 | 1013.0 |
| 20260509044014 | 83 | 44 | 1.0 | 1.0 | 0.00 | 0.00 | 0.00 | 43 | 1013.0 |
| 20260509042014 | 84 | 360 | 2.0 | 2.0 | 0.00 | 0.00 | 0.00 | 42 | 1013.0 |
| 20260509040012 | 85 | 360 | 2.0 | 2.0 | 0.00 | 0.00 | 0.00 | 41 | 1014.0 |
| 20260509034014 | 84 | 360 | 2.0 | 2.0 | 0.00 | 0.00 | 0.00 | 41 | 1014.0 |
| 20260509032014 | 85 | 9 | 2.0 | 6.0 | 0.00 | 0.00 | 0.00 | 41 | 1014.0 |
| 20260509030013 | 85 | 9 | 2.0 | 6.0 | 0.00 | 0.00 | 0.00 | 41 | 1013.0 |
| 20260509024013 | 86 | 9 | 2.0 | 6.0 | 0.00 | 0.00 | 0.00 | 39 | 1013.0 |
| 20260509022014 | 86 | 36 | 3.0 | 8.0 | 0.00 | 0.00 | 0.00 | 40 | 1014.0 |
| 20260509014012 | 87 | 36 | 3.0 | 8.0 | 0.00 | 0.00 | 0.00 | 38 | 1013.0 |
| 20260509012013 | 88 | 51 | 2.0 | 4.0 | 0.00 | 0.00 | 0.00 | 37 | 1015.0 |
| 20260509010012 | 88 | 51 | 2.0 | 4.0 | 0.00 | 0.00 | 0.00 | 38 | 1014.0 |
| 20260509004013 | 88 | 51 | 2.0 | 4.0 | 0.00 | 0.00 | 0.00 | 38 | 1014.0 |
| 20260509002016 | 88 | 61 | 2.0 | 3.0 | 0.00 | 0.00 | 0.00 | 38 | 1014.0 |
| 20260509000023 | 89 | 61 | 2.0 | 3.0 | 0.00 | 0.00 | 0.00 | 37 | 1013.0 |
| 20260508234013 | 89 | 64 | 3.0 | 4.0 | 0.00 | 0.00 | 0.00 | 37 | 1013.0 |
| 20260508232012 | 90 | 53 | 2.0 | 2.0 | 0.00 | 0.00 | 0.00 | 37 | 1014.0 |
| 20260508230014 | 91 | 53 | 2.0 | 2.0 | 0.00 | 0.00 | 0.00 | 35 | 1013.0 |
| 20260508224014 | 90 | 53 | 2.0 | 2.0 | 0.00 | 0.00 | 0.00 | 36 | 1013.0 |
| 20260508222013 | 90 | 43 | 1.0 | 1.0 | 0.00 | 0.00 | 0.00 | 35 | 1014.0 |
| 20260508220013 | 90 | 43 | 1.0 | 1.0 | 0.00 | 0.00 | 0.00 | 35 | 1012.0 |
| 20260508214013 | 91 | 43 | 1.0 | 1.0 | 0.00 | 0.00 | 0.00 | 34 | 1012.0 |
| 20260508212012 | 91 | 319 | 1.0 | 1.0 | 0.00 | 0.00 | 0.00 | 34 | 1013.0 |
| 20260508210013 | 93 | 319 | 1.0 | 1.0 | 0.00 | 0.00 | 0.00 | 29 | 1012.0 |
| 20260508204014 | 96 | 319 | 1.0 | 1.0 | 0.00 | 0.00 | 0.00 | 26 | 1012.0 |
| 20260508202013 | 91 | 294 | 2.0 | 5.0 | 0.00 | 0.00 | 0.00 | 30 | 1012.0 |
| 20260508194013 | 90 | 294 | 2.0 | 5.0 | 0.00 | 0.00 | 0.00 | 30 | 1011.0 |
| 20260508192028 | 89 | 293 | 1.0 | 1.0 | 0.00 | 0.00 | 0.00 | 31 | 1012.0 |
| 20260508190013 | 88 | 293 | 3.0 | 5.0 | 0.00 | 0.00 | 0.00 | 31 | 1011.0 |